Regional Weather Roundup
Issued by NWS

Home | Current Version | Previous Version | Text Only | Print | Product List | Glossary On
Versions: 1 2 3 4 5 6 7 8 9 10 11 12 13 14 15 16 17 18 19 20 21 22 23 24 25 26 27 28 29 30 31 32 33 34 35 36 37 38 39 40 41 42 43 44 45 46 47 48 49 50
000
ASUS43 KLSX 251759
RWRMO

WEATHER SUMMARY FOR MISSOURI
NATIONAL WEATHER SERVICE SPRINGFIELD MO
1200 PM CST SUN JAN 25 2015

NOTE: "FAIR" INDICATES FEW OR NO CLOUDS BELOW 12,000 FEET WITH NO
       SIGNIFICANT WEATHER AND/OR OBSTRUCTIONS TO VISIBILITY.
       CURRENT SKY AND/OR WEATHER CONDITIONS ARE NOT AVAILABLE FOR
       CHILLICOTHE AND FARMINGTON.

MOZ001>031-035>038-043-044-053-054-251900-
...NORTHERN AND WESTERN MISSOURI...

CITY           SKY/WX    TMP DP  RH WIND       PRES   REMARKS
KANSAS CTY INT CLOUDY    37  34  89 N21G32    29.81R WCI  26
6HR MIN TEMP:  36; 6HR MAX TEMP:  43; 6HR PCP:  0.01;

KANSAS C DTWN  CLOUDY    40  34  79 NW16G29   29.81R
6HR MIN TEMP:  38; 6HR MAX TEMP:  43; 6HR PCP: TRACE;

LEE`S SUMMIT   CLOUDY    38  33  82 NW18      29.79R WCI  28
6HR MIN TEMP:  37; 6HR MAX TEMP:  43; 6HR PCP:  0.01;

ST JOSEPH      CLOUDY    38  34  85 N25G36    29.86R WCI  27
6HR MIN TEMP:  36; 6HR MAX TEMP:  40; 6HR PCP:  0.01;

CHILLICOTHE      N/A     38  35  89 N13G28    29.77R WCI  30
6HR MIN TEMP:  36; 6HR MAX TEMP:  43; 6HR PCP:  0.09;

KIRKSVILLE     CLOUDY    35  33  92 N22G28    29.73R WCI  23
6HR MIN TEMP:  35; 6HR MAX TEMP:  42; 6HR PCP:  0.13;


$$
MOZ066>068-077>081-088>096-101>105-251900-
...SOUTHWEST MISSOURI...

CITY           SKY/WX    TMP DP  RH WIND       PRES   REMARKS
SPRINGFIELD    LGT RAIN  39  35  86 NW26G37   29.74R WCI  28
6HR MIN TEMP:  39; 6HR MAX TEMP:  48; 6HR PCP:  0.01;

JOPLIN         CLOUDY    42  31  64 NW23G31   29.84R
6HR MIN TEMP:  42; 6HR MAX TEMP:  49;


$$
MOZ032>034-039>042-045>050-055>058-069>072-251900-
...CENTRAL MISSOURI...

CITY           SKY/WX    TMP DP  RH WIND       PRES   REMARKS
COLUMBIA       LGT RAIN  41  40  96 NW15G22   29.65R FOG
6HR MIN TEMP:  41; 6HR MAX TEMP:  44; 6HR PCP:  0.02;

JEFFERSON CITY CLOUDY    42  39  89 W17       29.66R FOG
6HR MIN TEMP:  42; 6HR MAX TEMP:  46; 6HR PCP: TRACE;

ROLLA          LGT RAIN  42  38  85 W15       29.63R
6HR MIN TEMP:  42; 6HR MAX TEMP:  45; 6HR PCP:  0.01;

SEDALIA        LGT RAIN  38  34  85 NW18G28   29.72R WCI  28
6HR MIN TEMP:  38; 6HR MAX TEMP:  46; 6HR PCP:  0.02;

OSAGE BEACH    CLOUDY    41  36  81 NW9G16    29.69R

$$
MOZ051-052-059>065-251900-
...EAST CENTRAL MISSOURI...

CITY           SKY/WX    TMP DP  RH WIND       PRES   REMARKS
ST LOUIS INTL  LGT RAIN  47  43  86 W9        29.59S FOG
6HR MIN TEMP:  45; 6HR MAX TEMP:  48; 6HR PCP:  0.02;

SPIRIT OF STL  CLOUDY    46  42  86 W10       29.59S
6HR MIN TEMP:  44; 6HR MAX TEMP:  47; 6HR PCP: TRACE;

ST CHARLES     CLOUDY    45  44  97 W8        29.59S
6HR MIN TEMP:  40; 6HR MAX TEMP:  45; 6HR PCP:  0.01;


$$
MOZ072>076-082>087-097>100-106>115-251900-
...SOUTH CENTRAL AND SOUTHEAST MISSOURI...

CITY           SKY/WX    TMP DP  RH WIND       PRES   REMARKS
CAPE GIRARDEAU LGT RAIN  43  42  97 SW9       29.61F FOG
6HR MIN TEMP:  39; 6HR MAX TEMP:  43; 6HR PCP:  0.27;

FARMINGTON     CLOUDY    45  43  93 MISG      29.62F
6HR MIN TEMP:  45; 6HR MAX TEMP:  46; 6HR PCP:  0.09;

POPLAR BLUFF   LGT RAIN  44  41  89 SW7       29.62F FOG
6HR MIN TEMP:  40; 6HR MAX TEMP:  44; 6HR PCP:  0.62;

WEST PLAINS    CLOUDY    48  40  73 W15G23    29.65S
6HR MIN TEMP:  43; 6HR MAX TEMP:  48; 6HR PCP:  0.05;


$$



USA.gov is the U.S. government's official web portal to all federal, state and local government web resources and services.